Location: Fort Wayne
(41.1310°N, 85.1290°W)
Time: 19:21:21
(UTC-04:00)

COSMOS 2428 - Visible Passes

Search period start: 22 May 2017 00:00
Search period end: 01 June 2017 00:00
Orbit: 844 x 859 km, 70.9° (Epoch: 21 May)

Date Brightness Start Highest point End Pass type
(mag) Time Alt. Az. Time Alt. Az. Time Alt. Az.
22 May 5.4 01:33:48 10° NNE 01:36:13 13° NE 01:38:37 10° ENE visible
22 May 2.9 03:15:49 10° NNW 03:21:35 71° ENE 03:24:47 27° SE visible
22 May 4.2 05:01:48 10° WNW 05:05:10 16° W 05:06:44 14° WSW visible
23 May 5.3 01:21:42 10° NNE 01:24:08 13° NE 01:26:33 10° ENE visible
23 May 2.9 03:03:45 10° NNW 03:09:30 71° ENE 03:12:00 35° SE visible
23 May 4.2 04:49:44 10° WNW 04:53:05 16° W 04:53:57 15° WSW visible
24 May 5.3 01:09:37 10° NNE 01:12:04 13° NE 01:14:29 10° ENE visible
24 May 2.9 02:51:40 10° NNW 02:57:25 71° ENE 02:59:22 42° SE visible
24 May 4.3 04:37:39 10° WNW 04:41:00 16° W 04:41:20 16° WSW visible
25 May 5.3 00:57:32 10° NNE 00:59:59 13° NE 01:02:26 10° ENE visible
25 May 2.8 02:39:35 10° NNW 02:45:21 71° ENE 02:46:53 49° SE visible
25 May 4.3 04:25:36 10° WNW 04:28:51 16° W 04:28:51 16° W visible
26 May 5.2 00:45:26 10° NNE 00:47:54 13° NE 00:50:22 10° ENE visible
26 May 2.8 02:27:30 10° NNW 02:33:16 71° ENE 02:34:29 54° SE visible
26 May 4.4 04:13:32 10° WNW 04:16:27 16° W 04:16:27 16° W visible
27 May 5.2 00:33:21 10° NNE 00:35:50 13° NE 00:38:18 10° ENE visible
27 May 2.8 02:15:25 10° NNW 02:21:11 71° ENE 02:22:10 59° ESE visible
27 May 4.4 04:01:27 10° WNW 04:04:09 16° W 04:04:09 16° W visible
28 May 5.2 00:21:15 10° NNE 00:23:45 13° NE 00:26:14 10° ENE visible
28 May 2.8 02:03:21 10° NNW 02:09:06 72° ENE 02:09:55 62° ESE visible
28 May 4.5 03:49:23 10° WNW 03:51:53 15° W 03:51:53 15° W visible
29 May 5.1 00:09:10 10° NNE 00:11:41 13° NE 00:14:10 10° ENE visible
29 May 2.8 01:51:16 10° NNW 01:57:01 72° ENE 01:57:43 64° ESE visible
29 May 4.5 03:37:19 10° WNW 03:39:43 15° W 03:39:43 15° W visible
29 May 5.1 23:57:04 10° NNE 23:59:35 13° NE 00:02:06 10° ENE visible
30 May 2.7 01:39:11 10° NNW 01:44:56 72° ENE 01:45:35 65° ESE visible
30 May 4.6 03:25:14 10° WNW 03:27:34 15° W 03:27:34 15° W visible
30 May 5.1 23:44:58 10° NNE 23:47:30 13° NE 23:50:02 10° ENE visible
31 May 2.7 01:27:06 10° NNW 01:32:52 72° ENE 01:33:29 66° ESE visible
31 May 4.6 03:13:10 10° WNW 03:15:28 15° W 03:15:28 15° W visible
31 May 5.0 23:32:54 10° NNE 23:35:26 13° NE 23:37:58 10° ENE visible
